Location: Unspecified
(0.0000°N, 0.0000°E)
Time: 04:14:04
(UTC+00:00)

A-11 Canister half - Pass Details

Date: 19 April 2026
Orbit: 1523 x 1685 km, 47.3° (Epoch: 13 May)

Event Time Altitude Azimuth Distance (km) Brightness Sun altitude
Rises 22:48:42 0° 256° (WSW) 4,789 - -69.1°
Reaches altitude 10° 22:53:02 10° 273° (W) 3,832 - -70.0°
Maximum altitude 22:59:22 19° 314° (NW) 3,206 - -71.3°
Drops below altitude 10° 23:05:51 10° 355° (N) 3,902 - -72.5°
Sets 23:10:25 0° 13° (NNE) 4,907 - -73.4°
